Norfolk, NE

7:12 PM CDT on September 27, 2016 (GMT -0500)
Stefan Memorial

Weather History for KOFK - September, 2013

Change the Weather History Date:

Wednesday, September 18, 2013

  Actual Average Record
Temperature  
Mean Temperature 80 °F 63 °F  
Max Temperature 91 °F 76 °F 106 °F (1895)
Min Temperature 68 °F 50 °F 27 °F (1902)
Degree Days  
Heating Degree Days 0 5  
Month to date heating degree days 7 48  
Since 1 July heating degree days 23 64  
Cooling Degree Days 15 2  
Month to date cooling degree days 136 74  
Year to date cooling degree days 960 890  
Growing Degree Days 30 (Base 50)    
Moisture  
Dew Point 66 °F    
Average Humidity 70    
Maximum Humidity 93    
Minimum Humidity 47    
Precipitation  
Precipitation 0.00 in 0.09 in 3.15 in (1995)
Month to date precipitation 0.14 1.62  
Year to date precipitation 18.55 22.15  
Snow  
Snow 0.00 in 0.00 in - ()
Month to date snowfall 0.0 0.0  
Since 1 July snowfall 0.0 0.0  
Snow Depth 0.00 in    
Sea Level Pressure  
Sea Level Pressure 29.69 in    
Wind  
Wind Speed 14 mph (South)    
Max Wind Speed 23 mph    
Max Gust Speed 31 mph    
Visibility 9 miles    
Events      
T = Trace of Precipitation, MM = Missing Value Source: NWS Daily Summary

Daily Weather History Graph

Daily Weather History Graph

Search for Another Location

Airport or City:

Trip Planner

Search our weather history database for the weather conditions in past years. The results will help you decide how hot, cold, wet, or windy it might be!

Date:

Astronomy

Sep. 18, 2013 Rise Set
Actual Time 7:13 AM CDT 7:33 PM CDT
Civil Twilight 6:45 AM CDT 8:01 PM CDT
Nautical Twilight 6:12 AM CDT 8:34 PM CDT
Astronomical Twilight 5:38 AM CDT 9:07 PM CDT
Moon 6:57 PM CDT (9/18) 6:16 AM CDT (9/18)
Length of Visible Light 13h 16m
Length of Day
12h 20m
Waxing Gibbous, 99% of the Moon is Illuminated
Sep 18
Waxing Gibbous
Sep 19
Full
Sep 26
Last Quarter
Oct 4
New
Oct 11
First Quarter

Hourly Weather History & Observations

Time (CDT) Temp. Heat Index Dew Point Humidity Pressure Visibility Wind Dir Wind Speed Gust Speed Precip Events Conditions
12:56 AM 70.0 °F - 66.0 °F 87% 29.79 in 8.0 mi SSE 13.8 mph 20.7 mph N/A   Clear
1:56 AM 71.1 °F - 66.0 °F 84% 29.78 in 9.0 mi South 17.3 mph - N/A   Clear
2:56 AM 70.0 °F - 66.0 °F 87% 29.77 in 8.0 mi South 13.8 mph - N/A   Clear
3:56 AM 69.1 °F - 66.0 °F 90% 29.75 in 8.0 mi South 15.0 mph - N/A   Clear
4:56 AM 69.1 °F - 66.0 °F 90% 29.74 in 8.0 mi South 15.0 mph 21.9 mph N/A   Clear
5:56 AM 69.1 °F - 66.0 °F 90% 29.74 in 7.0 mi South 12.7 mph - N/A   Clear
6:56 AM 68.0 °F - 66.0 °F 93% 29.74 in 7.0 mi South 12.7 mph 20.7 mph N/A   Clear
7:56 AM 68.0 °F - 66.0 °F 93% 29.75 in 6.0 mi SSE 10.4 mph - N/A   Clear
8:56 AM 71.1 °F - 66.0 °F 84% 29.75 in 9.0 mi South 10.4 mph - N/A   Scattered Clouds
9:56 AM 73.9 °F - 66.0 °F 76% 29.74 in 10.0 mi South 13.8 mph 20.7 mph N/A   Partly Cloudy
10:56 AM 78.1 °F - 66.0 °F 66% 29.72 in 10.0 mi SSW 12.7 mph 21.9 mph N/A   Clear
11:56 AM 82.0 °F 84.5 °F 66.9 °F 60% 29.70 in 10.0 mi South 16.1 mph - N/A   Clear
12:56 PM 86.0 °F 88.8 °F 66.9 °F 53% 29.68 in 10.0 mi South 13.8 mph 26.5 mph N/A   Clear
1:56 PM 88.0 °F 90.7 °F 66.9 °F 49% 29.65 in 10.0 mi South 18.4 mph 25.3 mph N/A   Partly Cloudy
2:56 PM 89.1 °F 92.1 °F 66.9 °F 48% 29.64 in 10.0 mi South 20.7 mph 27.6 mph N/A   Partly Cloudy
3:56 PM 90.0 °F 92.4 °F 66.0 °F 45% 29.63 in 10.0 mi SSW 15.0 mph 24.2 mph N/A   Partly Cloudy
4:56 PM 90.0 °F 92.4 °F 66.0 °F 45% 29.62 in 10.0 mi South 19.6 mph 25.3 mph N/A   Partly Cloudy
5:56 PM 89.1 °F 91.3 °F 66.0 °F 46% 29.62 in 10.0 mi SSW 13.8 mph 23.0 mph N/A   Clear
6:56 PM 87.1 °F 89.2 °F 66.0 °F 49% 29.63 in 10.0 mi South 6.9 mph - N/A   Clear
7:56 PM 81.0 °F 83.0 °F 66.0 °F 60% 29.62 in 10.0 mi SSE 6.9 mph - N/A   Clear
8:56 PM 80.1 °F 82.3 °F 66.9 °F 64% 29.62 in 10.0 mi SSE 12.7 mph - N/A   Clear
9:56 PM 79.0 °F - 66.9 °F 66% 29.63 in 10.0 mi SSE 9.2 mph - N/A   Clear
10:56 PM 80.1 °F 81.9 °F 64.9 °F 60% 29.63 in 10.0 mi South 12.7 mph - N/A   Clear
11:56 PM 79.0 °F - 64.0 °F 60% 29.61 in 10.0 mi South 17.3 mph - N/A   Clear